Home   Weather   Palikir   Past weeks
Flag for Micronesia

Past Weather in Palikir, Pohnpei, Micronesia — Yesterday and Last 2 Weeks

Now
87 °F

Scattered clouds.


Feels Like: 98 °F
Forecast: 85 / 78 °F
Wind: 6 mph from Southeast

Location: Pohnpei

Current Time: Jun 20, 2019 at 12:07:11 pm

Latest Report: Jun 20, 2019 at 10:50 am


Visibility: 15 mi

Pressure: 29.84 "Hg

Humidity: 70%

Dew Point: 76 °F

Location of PalikirLocation

Past Weather in Palikir — Graph

°F

Palikir Temperature Yesterday

Maximum temperature yesterday: 87 °F (at 2:52 pm)
Minimum temperature yesterday: 76 °F (at 6:52 am)
Average temperature yesterday: 80 °F

High & Low Weather Summary for the Past Weeks

 TemperatureHumidityPressure
High89 °F (Jun 9, 12:52 pm)100% (Jun 8, 7:19 am)29.91 "Hg (Jun 8, 7:19 am)
Low76 °F (Jun 9, 1:52 am)65% (Jun 14, 9:52 pm)29.73 "Hg (Jun 5, 3:50 pm)
Average82 °F84%29.83 "Hg
* Reported Jun 5 10:52 am — Jun 20 10:50 am, Palikir. Weather by CustomWeather, © 2019

Note: Actual official high and low records may vary slightly from our data, if they occured in-between our weather recording intervals... More about our weather records

Advertising

Palikir Weather History for the Previous 24 Hours

Scroll right to see more
 ConditionsComfort  
Time TempWeatherWind HumidityBarometerVisibility
10:50 am
Thu, Jun 20
87 °FScattered clouds.6 mph70%29.84 "Hg15 mi
9:54 am86 °FPartly sunny.6 mph76%29.85 "Hg15 mi
8:51 am85 °FMore clouds than sun.6 mph74%29.84 "Hg15 mi
7:51 am83 °FBroken clouds.6 mph81%29.83 "Hg15 mi
5:53 am78 °FPartly cloudy.3 mph90%29.80 "Hg15 mi
4:53 am79 °FOvercast.5 mph91%29.79 "Hg15 mi
3:52 am79 °FSprinkles. Mostly cloudy.5 mph91%29.80 "Hg12 mi
2:51 am77 °FPassing clouds.No wind95%29.80 "Hg15 mi
1:53 am77 °FPartly cloudy.No wind95%29.80 "Hg15 mi
12:53 am77 °FMostly cloudy.2 mph95%29.82 "Hg15 mi
11:51 pm
Wed, Jun 19
78 °FOvercast.2 mph95%29.84 "Hg15 mi
10:53 pm78 °FMostly cloudy.No wind95%29.85 "Hg15 mi
10:31 pm79 °FOvercast.No wind94%29.85 "Hg15 mi
9:54 pm78 °FMostly cloudy.No wind94%29.86 "Hg15 mi
8:54 pm78 °FMostly cloudy.No wind95%29.85 "Hg14 mi
7:52 pm79 °FSprinkles. Mostly cloudy.5 mph91%29.83 "Hg12 mi
7:11 pm82 °FSprinkles. Mostly cloudy.6 mph89%29.82 "Hg13 mi
6:54 pm82 °FMostly cloudy.3 mph84%29.81 "Hg15 mi
5:52 pm82 °FCloudy.5 mph82%29.79 "Hg15 mi
4:57 pm83 °FCloudy.6 mph79%29.78 "Hg15 mi
3:50 pm84 °FMore clouds than sun.6 mph77%29.78 "Hg15 mi
2:52 pm87 °FMostly cloudy.5 mph67%29.79 "Hg15 mi
2:30 pm84 °FMore clouds than sun.3 mph84%29.80 "Hg15 mi
1:52 pm85 °FPartly sunny.5 mph74%29.80 "Hg15 mi
12:52 pm81 °FMostly cloudy.6 mph84%29.83 "Hg15 mi
Weather by CustomWeather, © 2019

See weather overview